#timestamp,LO_Frequency,Hit,StdDev 
1552017615.3,286047000.8,N
1552017635.1,286047002.5,N
1552017636.0,286047002.5,N
1552017655.8,286047002.3,N
1552017675.7,286047004.4,N
1552017695.5,286047004.0,N
1552017715.4,286047001.9,N
1552017735.2,286047001.5,N
1552017755.0,286047002.0,N
1552017755.9,286047002.0,N
1552017775.8,286047003.9,N
1552017795.6,286047001.4,N
1552017815.4,286047001.7,N
1552017835.3,286047001.9,N
1552017855.1,286047002.6,N
1552017875.9,286047004.1,N
1552017895.7,286047003.4,N
1552017915.5,286047004.7,Y
1552017935.4,286047003.5,P
1552017955.2,286047001.3,N
1552017975.0,286047003.2,P
1552017976.0,286047003.2,Y
1552017995.8,286047002.2,P
1552018015.6,286047001.5,P
1552018035.5,286047004.2,P
1552018055.3,286047001.3,N
1552018075.1,286047002.2,N
1552018095.9,286047001.5,N
1552018115.7,286047001.0,N
1552018135.6,286047000.4,N
1552018155.4,286047000.0,N
1552018175.2,286047000.0,N
1552018195.1,286047004.4,Y
1552018196.0,286047004.4,P
1552018215.8,286047002.7,N
1552018235.7,286047001.7,N
1552018255.5,286047001.6,N
1552018275.3,286047001.3,N
1552018295.2,286047005.3,Y
1552018315.0,286046999.8,P
1552018315.9,286046999.8,N
1552018335.7,286046999.4,N
1552018355.6,286046996.5,Y
1552018375.4,286046996.7,P
1552018395.3,286046997.4,N
1552018415.1,286046996.6,N
1552018435.8,286046998.8,N
1552018455.7,286046999.8,N
1552018475.5,286047001.2,N
1552018495.4,286046999.2,N
1552018515.2,286046998.7,N
1552018535.0,286046996.5,N
1552018535.9,286046996.5,N
1552018555.8,286046998.8,N
1552018575.6,286046999.4,N
1552018595.4,286046997.3,N
1552018615.3,286046997.5,N
1552018635.1,286046997.7,N
1552018655.9,286046998.7,N
1552018675.7,286046999.3,N
1552018695.5,286046997.0,N
1552018715.4,286046997.7,N
1552018735.2,286046997.0,N
1552018755.0,286046995.3,Y
1552018756.0,286046995.3,P
1552018775.8,286046998.8,N
1552018795.6,286047000.9,N
1552018815.5,286046999.7,N
1552018835.3,286047002.5,N
1552018855.1,286047002.0,N
1552018875.9,286047002.7,N
1552018895.7,286047001.8,N
1552018915.6,286047002.3,N
1552018935.4,286047002.1,N
1552018955.2,286047001.4,N
1552018975.1,286047001.4,N
1552018976.0,286047001.4,N
1552018995.8,286047001.4,N
1552019015.6,286047004.0,N
1552019035.5,286047002.6,N
1552019055.3,286047000.5,N
1552019075.2,286046998.1,N
1552019095.9,286047001.0,N
1552019115.7,286046999.2,N
1552019135.6,286046996.6,N
1552019155.4,286046998.8,N
1552019175.2,286046999.1,N
1552019195.1,286046996.9,N
1552019196.0,286046996.9,N
1552019215.8,286046997.2,N
1552019235.7,286046999.6,N
1552019255.5,286046997.0,N
1552019275.3,286046997.6,N
1552019295.2,286046997.5,N
1552019315.0,286046997.6,N
1552019315.9,286046997.6,N
1552019335.8,286046995.0,N
1552019355.6,286046997.6,N
1552019375.4,286046995.7,N
1552019395.3,286046995.5,N
1552019415.1,286046997.8,N
1552019435.8,286046996.0,N
1552019455.7,286047011.9,Y
1552019475.5,286046995.2,P
1552019495.4,286046996.3,N
1552019515.2,286046993.5,P
1552019535.0,286046994.0,Y
1552019535.9,286046994.0,P
1552019555.8,286046998.0,N
1552019575.6,286046998.0,N
1552019595.5,286046999.0,N
1552019615.3,286046999.2,N
1552019635.1,286046997.5,N
1552019655.9,286046997.6,N
1552019675.7,286046997.8,N
1552019695.5,286046997.0,N
1552019715.4,286046997.3,N
1552019735.2,286046997.6,N
1552019755.1,286046997.2,N
1552019756.0,286046997.2,N
1552019775.8,286046995.4,Y
1552019795.6,286046996.6,P
1552019815.5,286046996.9,P
1552019835.3,286046999.6,N
1552019855.2,286046996.9,N
1552019875.9,286046998.9,N
1552019895.7,286047000.6,N
1552019915.6,286047001.6,N
1552019935.4,286047000.9,N
1552019955.2,286047000.4,N
1552019975.1,286046999.9,N
1552019976.0,286046999.9,N
1552019995.8,286046999.0,N
1552020015.7,286046999.4,N
1552020035.5,286046997.7,N
1552020055.3,286046996.8,N
1552020075.2,286046998.7,N
1552020095.0,286046999.5,N
1552020095.9,286046999.5,N
1552020115.8,286046998.7,N
1552020135.6,286047001.0,N
1552020155.4,286047000.7,N
1552020175.3,286047000.7,N
1552020195.1,286046998.9,N
1552020215.8,286046996.5,N
1552020235.7,286046997.8,N
1552020255.5,286046998.3,N
1552020275.4,286046996.9,N
1552020295.2,286046997.1,N
1552020315.0,286046995.4,Y
1552020315.9,286046995.4,P
1552020335.8,286046999.5,N
1552020355.6,286046999.3,N
1552020375.4,286046996.5,N
1552020395.3,286046996.5,N
1552020415.1,286046998.0,N
1552020435.9,286046994.9,Y
1552020455.7,286047000.2,P
1552020475.5,286047000.5,N
1552020495.4,286047000.9,N
1552020515.2,286047001.4,N
1552020535.1,286047002.2,N
1552020536.0,286047002.2,N
1552020555.8,286046999.8,N
1552020575.6,286046998.1,N
1552020595.5,286046999.8,N
1552020615.3,286047000.2,N
1552020635.1,286047000.3,N
1552020655.9,286046999.8,N
1552020675.7,286047000.4,N
1552020695.6,286047008.3,Y
1552020715.4,286047005.0,P
1552020735.2,286047006.0,N
1552020755.1,286047002.1,N
1552020756.0,286047002.1,N
1552020775.8,286047002.2,N
1552020795.7,286047002.7,N
1552020815.5,286047000.3,N
1552020835.3,286047000.5,N
1552020855.2,286046998.2,N
1552020875.0,286046999.8,N
1552020875.9,286046999.8,N
1552020895.7,286047001.0,N
1552020915.6,286047002.4,N
1552020935.4,286047002.3,N
1552020955.3,286047002.6,N
1552020975.1,286047002.3,N
1552020976.0,286047002.3,N
1552020995.8,286047001.7,N
1552021015.7,286047001.5,N
1552021035.5,286047003.0,N
1552021055.3,286047004.5,N
1552021075.2,286047005.6,Y
1552021095.0,286047004.2,P
1552021095.9,286047004.2,P
1552021115.8,286047003.1,N
1552021135.6,286047005.9,Y
1552021155.4,286046999.7,P
1552021175.3,286047000.0,N
1552021195.1,286046999.8,N
